This is the latest recevied weather packets stored in our database for station/object HG5CJW-10. If no packets are shown the sender has not sent any weather packets the latest 10 day(s).
| Time | Temp. | Humidity | Pressure | Rain* | Wind** | Luminosity | Snow |
|---|---|---|---|---|---|---|---|
| 1777832530 | 20° C | 37% | 1037.8 hPa | - | - | - | - |
| 1777830729 | 20° C | 36% | 1037.5 hPa | - | - | - | - |
| 1777828924 | 20.56° C | 35% | 1037.4 hPa | - | - | - | - |
| 1777828024 | 20.56° C | 34% | 1037.5 hPa | - | - | - | - |
| 1777827124 | 20.56° C | 32% | 1037.4 hPa | - | - | - | - |
| 1777826224 | 20.56° C | 33% | 1037.3 hPa | - | - | - | - |
| 1777825429 | 20° C | 32% | 1037.3 hPa | - | - | - | - |
| 1777824424 | 20.56° C | 30% | 1037.4 hPa | - | - | - | - |
| 1777822623 | 20.56° C | 30% | 1037.6 hPa | - | - | - | - |
| 1777821723 | 20.56° C | 29% | 1037.7 hPa | - | - | - | - |
| 1777820823 | 21.11° C | 29% | 1037.7 hPa | - | - | - | - |
| 1777819923 | 21.11° C | 30% | 1037.8 hPa | - | - | - | - |
| 1777819023 | 21.11° C | 30% | 1037.9 hPa | - | - | - | - |
| 1777818123 | 21.11° C | 30% | 1038.1 hPa | - | - | - | - |
| 1777817223 | 21.11° C | 30% | 1038.3 hPa | - | - | - | - |
| 1777816323 | 20.56° C | 31% | 1038 hPa | - | - | - | - |
| 1777814517 | 20.56° C | 31% | 1038.8 hPa | - | - | - | - |
| 1777813617 | 20.56° C | 30% | 1038.9 hPa | - | - | - | - |
| 1777812717 | 20.56° C | 31% | 1039.1 hPa | - | - | - | - |
| 1777811817 | 20° C | 33% | 1039.2 hPa | - | - | - | - |
| 1777810917 | 20° C | 33% | 1039.4 hPa | - | - | - | - |
| 1777810017 | 19.44° C | 32% | 1039.5 hPa | - | - | - | - |
| 1777809117 | 19.44° C | 40% | 1039.7 hPa | - | - | - | - |
| 1777808217 | 18.89° C | 40% | 1039.7 hPa | - | - | - | - |
| 1777807317 | 18.33° C | 40% | 1040 hPa | - | - | - | - |
* Rain since midnight (hover to see other rain measurements)
** Current wind speed in m/s (hover to see current wind gust speed)